#timestamp,LO_Frequency,Hit,StdDev 
1586613615.3,286046999.4,N
1586613635.2,286046998.8,N
1586613655.9,286046999.6,N
1586613675.7,286046999.5,N
1586613695.6,286046999.4,N
1586613715.4,286046997.8,N
1586613735.3,286046999.2,N
1586613755.1,286046997.7,N
1586613756.0,286046997.7,N
1586613775.8,286046997.7,N
1586613795.7,286046997.4,N
1586613815.5,286046996.5,N
1586613835.3,286046999.5,N
1586613855.2,286046996.6,N
1586613875.0,286046997.7,N
1586613875.9,286046997.7,N
1586613895.8,286046997.1,N
1586613915.6,286046998.7,N
1586613935.4,286046995.3,Y
1586613955.3,286046996.5,P
1586613975.1,286046997.8,N
1586613995.9,286046997.5,N
1586614015.7,286046995.5,Y
1586614035.5,286046999.1,P
1586614055.4,286047000.8,N
1586614075.2,286047001.0,N
1586614095.0,286046998.6,N
1586614096.0,286046998.6,N
1586614115.8,286047000.5,N
1586614135.6,286046998.2,N
1586614155.5,286046998.2,N
1586614175.3,286046996.9,N
1586614195.1,286046996.5,N
1586614215.9,286046998.6,N
1586614235.7,286046999.5,N
1586614255.6,286046998.3,N
1586614275.4,286046999.3,N
1586614295.2,286046998.7,N
1586614315.1,286046997.0,N
1586614316.0,286046997.0,N
1586614335.8,286046996.5,N
1586614355.7,286046998.8,N
1586614375.5,286046998.5,N
1586614395.3,286046998.4,N
1586614415.2,286046999.7,N
1586614435.9,286047002.0,N
1586614455.7,286047000.5,N
1586614475.6,286047002.7,N
1586614495.4,286047005.5,Y
1586614515.3,286047012.5,P
1586614535.1,286047013.2,N
1586614536.0,286047013.2,N
1586614555.8,286047010.4,N
1586614575.7,286047006.5,N
1586614595.5,286047004.6,N
1586614615.4,286047004.8,N
1586614635.2,286047005.9,N
1586614655.0,286047005.5,N
1586614655.9,286047005.5,N
1586614675.8,286047004.1,N
1586614695.6,286047002.6,N
1586614715.4,286047002.6,N
1586614735.3,286046998.2,N
1586614755.1,286046998.7,N
1586614775.9,286046998.6,N
1586614795.7,286046996.6,N
1586614815.5,286046997.4,N
1586614835.4,286046997.5,N
1586614855.2,286046994.9,N
1586614875.1,286046996.0,N
1586614876.0,286046996.0,N
1586614895.8,286046994.1,N
1586614915.6,286046991.8,N
1586614935.5,286046992.5,N
1586614955.3,286046990.1,N
1586614975.1,286046990.4,N
1586614995.9,286046990.6,N
1586615015.7,286046991.3,N
1586615035.6,286046991.4,N
1586615055.4,286046991.2,N
1586615075.2,286046990.7,N
1586615095.1,286046988.7,N
1586615096.0,286046988.7,N
1586615115.8,286046988.8,N
1586615135.7,286046991.5,N
1586615155.5,286046991.1,N
1586615175.3,286046990.3,N
1586615195.2,286046991.6,N
1586615215.0,286046989.4,N
1586615215.9,286046989.4,N
1586615235.8,286046987.0,Y
1586615255.6,286046991.9,P
1586615275.4,286046993.6,P
1586615295.3,286046994.8,P
1586615315.1,286046990.1,Y
1586615335.8,286047000.6,P
1586615355.7,286047002.4,N
1586615375.5,286046999.9,N
1586615395.4,286047002.7,N
1586615415.2,286047002.8,N
1586615435.0,286047000.2,N
1586615435.9,286047000.2,N
1586615455.8,286047001.9,N
1586615475.6,286047002.7,N
1586615495.5,286046999.9,N
1586615515.3,286047000.8,N
1586615535.1,286046999.1,N
1586615555.9,286046999.0,N
1586615575.7,286046996.6,N
1586615595.5,286046999.6,N
1586615615.4,286046996.5,N
1586615635.2,286046999.0,N
1586615655.1,286046999.0,N
1586615656.0,286046999.0,N
1586615675.8,286046998.9,N
1586615695.7,286046999.3,N
1586615715.5,286046999.6,N
1586615735.3,286046999.4,N
1586615755.2,286046999.5,N
1586615775.0,286046997.2,N
1586615775.9,286046997.2,N
1586615795.8,286046995.1,N
1586615815.6,286046995.7,N
1586615835.4,286046995.2,N
1586615855.3,286046995.1,N
1586615875.1,286046995.0,N
1586615895.8,286046994.9,N
1586615915.7,286046995.6,N
1586615935.5,286046996.7,N
1586615955.4,286046997.9,N
1586615975.2,286046997.8,N
1586615995.0,286046999.5,N
1586615995.9,286046999.5,N
1586616015.8,286046996.9,N
1586616035.6,286046995.2,N
1586616055.5,286046996.6,N
1586616075.3,286046996.9,N
1586616095.1,286046997.0,N
1586616115.9,286046997.3,N
1586616135.7,286046997.1,N
1586616155.5,286046996.0,N
1586616175.4,286046997.7,N
1586616195.2,286046998.7,N
1586616215.1,286046995.1,Y
1586616216.0,286046995.1,P
1586616235.8,286047001.1,N
1586616255.7,286047000.9,N
1586616275.5,286047001.1,N
1586616295.3,286047001.0,N
1586616315.2,286047000.7,N
1586616335.0,286047002.8,N
1586616335.9,286047002.8,N
1586616355.8,286046999.7,N
1586616375.6,286047002.4,N
1586616395.4,286047001.4,N
1586616415.3,286047002.0,N
1586616435.1,286047002.0,N
1586616455.9,286047001.9,N
1586616475.7,286047002.4,N
1586616495.5,286047001.9,N
1586616515.4,286047002.8,N
1586616535.2,286046999.9,N
1586616555.1,286047000.1,N
1586616556.0,286047000.1,N
1586616575.8,286047000.3,N
1586616595.6,286047002.7,N
1586616615.5,286047002.7,N
1586616635.3,286047001.7,N
1586616655.2,286047004.3,N
1586616675.9,286047004.2,N
1586616695.7,286047003.6,N
1586616715.6,286047001.4,N
1586616735.4,286047004.2,N
1586616755.2,286047003.6,N
1586616775.1,286047003.0,N
1586616776.0,286047003.0,N
1586616795.8,286047005.2,Y
1586616815.7,286047003.6,P
1586616835.5,286047004.0,P
1586616855.3,286047002.5,N
1586616875.2,286047004.0,Y
1586616895.0,286047000.1,P
1586616895.9,286047000.1,N
1586616915.8,286047000.7,N
1586616935.6,286046999.7,N
1586616955.4,286046998.5,N
1586616975.3,286046998.6,N
1586616995.1,286047000.9,N
1586617015.8,286047002.7,N
1586617035.7,286046999.7,N
1586617055.5,286046999.8,N
1586617075.4,286047002.6,N
1586617095.2,286047001.5,N
1586617115.0,286047001.3,N
1586617115.9,286047001.3,N
1586617135.8,286047001.4,N
1586617155.6,286047005.7,Y
1586617175.5,286047001.7,P
1586617195.3,286047000.5,N
